Location: Kawakawa
(35.3830°S, 174.0670°E)
Time: 11:48:15
(UTC+13:00)

Explorer 7 - Pass Details

Date: 17 December 2019
Orbit: 485 x 679 km, 50.3° (Epoch: 17 January)

Event Time Altitude Azimuth Distance (km) Brightness Sun altitude
Rises 06:50:12 0° 222° (SW) 2,586 10.1 7.7°
Reaches altitude 10° 06:54:31 10° 175° (S) 1,695 9.8 8.5°
Maximum altitude 06:54:59 10° 168° (SSE) 1,684 9.9 8.6°
Drops below altitude 10° 06:55:27 10° 161° (SSE) 1,696 10.0 8.7°
Sets 06:59:46 0° 115° (ESE) 2,592 12.7 9.5°
